TimeEDT,TemperatureF,Dew PointF,Humidity,Sea Level PressureIn,VisibilityMPH,Wind Direction,Wind SpeedMPH,Gust SpeedMPH,PrecipitationIn,Events,Conditions,WindDirDegrees,DateUTC
12:53 AM,82.0,72.0,71,30.14,10.0,East,11.5,-,N/A,,Partly Cloudy,90,2013-06-24 04:53:00
1:53 AM,78.1,72.0,81,30.13,10.0,ESE,8.1,-,0.00,Rain,Light Rain,120,2013-06-24 05:53:00
2:53 AM,80.1,73.9,81,30.11,10.0,ESE,5.8,-,0.00,,Mostly Cloudy,120,2013-06-24 06:53:00
3:53 AM,82.0,73.0,74,30.10,10.0,East,13.8,-,N/A,,Partly Cloudy,100,2013-06-24 07:53:00
4:53 AM,80.1,73.9,81,30.10,10.0,ESE,10.4,-,0.01,,Mostly Cloudy,110,2013-06-24 08:53:00
5:53 AM,80.1,73.0,79,30.10,10.0,East,9.2,-,0.00,Rain,Light Rain,90,2013-06-24 09:53:00
6:53 AM,80.1,73.0,79,30.12,10.0,ESE,8.1,-,0.00,,Scattered Clouds,110,2013-06-24 10:53:00
7:53 AM,81.0,73.0,77,30.14,10.0,ESE,6.9,-,N/A,,Scattered Clouds,110,2013-06-24 11:53:00
8:53 AM,82.9,73.0,72,30.15,10.0,ESE,10.4,-,N/A,,Scattered Clouds,110,2013-06-24 12:53:00
9:53 AM,86.0,72.0,63,30.16,10.0,East,12.7,-,N/A,,Mostly Cloudy,100,2013-06-24 13:53:00
10:53 AM,86.0,75.0,70,30.17,10.0,ESE,13.8,-,0.01,Rain,Light Rain,110,2013-06-24 14:53:00
11:53 AM,88.0,73.0,61,30.18,10.0,East,18.4,-,0.00,,Scattered Clouds,90,2013-06-24 15:53:00
12:53 PM,87.1,73.0,63,30.17,10.0,ESE,16.1,-,N/A,,Scattered Clouds,110,2013-06-24 16:53:00
1:53 PM,86.0,73.0,65,30.15,10.0,East,16.1,-,N/A,,Mostly Cloudy,100,2013-06-24 17:53:00
2:53 PM,87.1,73.0,63,30.14,10.0,East,15.0,-,N/A,,Scattered Clouds,100,2013-06-24 18:53:00
3:53 PM,88.0,72.0,59,30.12,10.0,East,17.3,24.2,N/A,,Partly Cloudy,90,2013-06-24 19:53:00
4:53 PM,87.1,73.0,63,30.10,10.0,East,16.1,23.0,N/A,,Scattered Clouds,100,2013-06-24 20:53:00
5:53 PM,86.0,73.0,65,30.10,10.0,East,13.8,-,N/A,,Scattered Clouds,100,2013-06-24 21:53:00
6:53 PM,84.0,73.0,69,30.09,10.0,East,15.0,-,N/A,,Scattered Clouds,90,2013-06-24 22:53:00
7:53 PM,82.9,73.9,74,30.09,10.0,East,13.8,-,N/A,,Scattered Clouds,80,2013-06-24 23:53:00
8:53 PM,82.0,73.0,74,30.10,10.0,East,11.5,-,N/A,,Scattered Clouds,90,2013-06-25 00:53:00
9:53 PM,82.9,72.0,69,30.11,10.0,East,12.7,-,N/A,,Scattered Clouds,90,2013-06-25 01:53:00
10:53 PM,82.0,73.0,74,30.12,10.0,East,10.4,-,N/A,,Scattered Clouds,90,2013-06-25 02:53:00
11:53 PM,82.0,72.0,71,30.14,10.0,East,11.5,-,N/A,,Clear,100,2013-06-25 03:53:00